#timestamp,LO_Frequency,Hit,StdDev 
1509937215.2,286046988.7,Y
1509937235.9,286046989.8,P
1509937255.7,286046989.0,P
1509937275.6,286046988.8,P
1509937295.4,286046991.1,Y
1509937315.2,286047001.0,P
1509937335.1,286047002.8,N
1509937336.0,286047002.8,N
1509937355.8,286047002.6,N
1509937375.6,286047005.7,N
1509937395.5,286047010.0,N
1509937415.3,286047009.0,N
1509937435.1,286047007.3,N
1509937455.9,286047001.7,N
1509937475.7,286047002.4,N
1509937495.5,286047003.8,N
1509937515.4,286047004.8,N
1509937535.2,286047010.6,N
1509937555.0,286047010.2,N
1509937555.9,286047010.2,N
1509937575.8,286047011.0,N
1509937595.6,286047011.7,N
1509937615.4,286047014.0,N
1509937635.3,286047012.4,N
1509937655.1,286047013.3,N
1509937675.8,286047015.5,N
1509937695.7,286047015.9,N
1509937715.5,286047019.2,Y
1509937735.4,286047012.6,P
1509937755.2,286047013.8,P
1509937775.0,286047011.4,P
1509937775.9,286047011.4,Y
1509937795.8,286046998.9,P
1509937815.6,286046998.4,N
1509937835.4,286046998.4,N
1509937855.3,286047002.8,N
1509937875.1,286047000.1,N
1509937876.0,286047000.1,N
1509937895.8,286047003.9,N
1509937915.7,286047004.8,N
1509937935.5,286047005.3,N
1509937955.3,286047001.5,N
1509937975.2,286047003.1,N
1509937995.9,286047007.4,N
1509938015.7,286047004.6,N
1509938035.6,286047006.0,N
1509938055.4,286047003.1,N
1509938075.2,286047004.0,N
1509938095.1,286047003.4,N
1509938096.0,286047003.4,N
1509938115.8,286047003.8,N
1509938135.6,286047005.9,N
1509938155.5,286047001.0,N
1509938175.3,286047001.4,N
1509938195.1,286046997.1,N
1509938215.9,286046995.6,N
1509938235.7,286046998.0,N
1509938255.5,286046994.7,N
1509938275.4,286046989.0,N
1509938295.2,286046987.4,N
1509938315.0,286046984.5,Y
1509938315.9,286046984.5,P
1509938335.8,286046984.4,N
1509938355.6,286046986.5,N
1509938375.4,286046986.8,N
1509938395.3,286046985.9,N
1509938415.1,286046984.9,N
1509938416.0,286046984.9,N
1509938435.8,286046981.0,Y
1509938455.7,286046995.5,P
1509938475.5,286046996.8,N
1509938495.3,286046997.1,N
1509938515.2,286047001.6,N
1509938535.0,286047003.7,N
1509938535.9,286047003.7,N
1509938555.7,286046999.7,N
1509938575.6,286047001.2,N
1509938595.4,286046999.0,N
1509938615.2,286046998.1,N
1509938635.1,286047003.4,N
1509938636.0,286047003.4,N
1509938655.8,286047005.2,N
1509938675.6,286047006.4,N
1509938695.5,286047005.9,N
1509938715.3,286047006.9,N
1509938735.1,286047003.1,N
1509938755.9,286047000.1,N
1509938775.7,286047004.4,N
1509938795.5,286047002.2,N
1509938815.4,286047001.9,N
1509938835.2,286047002.0,N
1509938855.0,286047004.2,N
1509938856.0,286047004.2,N
1509938875.8,286047002.2,N
1509938895.6,286047000.1,N
1509938915.5,286047004.2,N
1509938935.3,286047005.1,N
1509938955.1,286047007.6,N
1509938975.8,286047006.2,N
1509938995.7,286047007.7,N
1509939015.5,286047010.6,Y
1509939035.4,286047009.0,P
1509939055.2,286047012.2,P
1509939075.0,286047009.4,N
1509939075.9,286047009.4,N
1509939095.8,286047008.1,N
1509939115.6,286047010.3,Y
1509939135.4,286047001.2,P
1509939155.3,286046999.8,N
1509939175.1,286047004.2,N
1509939176.0,286047004.2,N
1509939195.8,286047005.2,N
1509939215.7,286047004.4,N
1509939235.5,286047003.7,N
1509939255.3,286047004.2,N
1509939275.2,286047003.0,N
1509939295.9,286047005.6,N
1509939315.7,286047001.5,N
1509939335.6,286047000.6,N
1509939355.4,286047002.8,N
1509939375.2,286047003.0,N
1509939395.1,286047009.6,Y
1509939396.0,286047009.6,P
1509939415.8,286047004.6,N
1509939435.6,286047003.6,N
1509939455.5,286047002.8,N
1509939475.3,286046995.3,N
1509939495.1,286046994.4,N
1509939515.9,286046999.0,N
1509939535.7,286046996.5,N
1509939555.5,286046998.7,N
1509939575.4,286046993.3,N
1509939595.2,286046988.6,N
1509939615.0,286046989.4,N
1509939615.9,286046989.4,N
1509939635.8,286046991.1,N
1509939655.6,286046990.5,N
1509939675.4,286046991.8,N
1509939695.3,286046993.0,N
1509939715.1,286046996.1,N
1509939735.8,286046994.6,N
1509939755.7,286046991.1,N
1509939775.5,286046990.3,N
1509939795.3,286046996.1,N
1509939815.2,286046995.9,N
1509939835.0,286046992.0,N
1509939835.9,286046992.0,N
1509939855.7,286046995.3,N
1509939875.6,286046996.7,N
1509939895.4,286046995.6,N
1509939915.2,286046993.2,N
1509939935.1,286046994.7,N
1509939936.0,286046994.7,N
1509939955.8,286046994.2,N
1509939975.7,286046993.8,N
1509939995.5,286046997.1,N
1509940015.3,286046998.2,N
1509940035.1,286046999.6,N
1509940055.9,286046997.3,N
1509940075.7,286046995.8,N
1509940095.5,286046994.5,N
1509940115.4,286046996.3,N
1509940135.2,286046998.0,N
1509940155.0,286046993.5,N
1509940156.0,286046993.5,N
1509940175.8,286046992.3,Y
1509940195.6,286046992.5,P
1509940215.5,286046985.9,P
1509940235.3,286046982.3,P
1509940255.1,286046981.9,Y
1509940275.9,286046991.1,P
1509940295.7,286046989.6,P
1509940315.5,286046989.8,P
1509940335.4,286046987.6,Y
1509940355.2,286046999.3,P
1509940375.0,286046997.1,N
1509940375.9,286046997.1,N
1509940395.8,286046994.7,N
1509940415.6,286046996.2,N
1509940435.4,286046997.5,N
1509940455.3,286046995.0,N
1509940475.1,286046992.1,N
1509940495.8,286046988.6,Y
1509940515.7,286046993.3,P
1509940535.5,286046994.6,P
1509940555.3,286046990.2,P
1509940575.2,286046990.8,Y
1509940595.0,286046997.1,P
1509940595.9,286046997.1,N
1509940615.8,286047000.2,N
1509940635.6,286046996.6,N
1509940655.4,286046995.2,N
1509940675.3,286046993.7,Y
1509940695.1,286046998.9,P
1509940715.8,286047000.2,N
1509940735.7,286047003.7,N
1509940755.5,286047003.6,N
1509940775.3,286047005.3,N
1509940795.2,286047006.7,N
